Location: ????????
(55.0559°N, 39.1270°E)
Time: 18:02:59
(UTC+00:00)

Cosmos 1378 Rocket - Pass Details

Date: 15 November 2025
Orbit: 595 x 618 km, 82.5° (Epoch: 14 December)

Event Time Altitude Azimuth Distance (km) Brightness Sun altitude
Rises 02:58:47 0° 190° (S) 2,829 7.0 -16.4°
Reaches altitude 10° 03:00:58 10° 190° (S) 1,931 6.1 -16.1°
Maximum altitude 03:05:15 90° 127° (SE) 605 3.4 -15.5°
Drops below altitude 10° 03:09:34 10° 12° (NNE) 1,950 6.1 -14.9°
Sets 03:11:47 0° 12° (NNE) 2,860 7.0 -14.6°
